Latest Weather Observations for Perth Airport

IDW60901

Issued at 8:05 am WST Wednesday 1 October 2014 (issued every 10 minutes, with the page automatically refreshed every 10 minutes)

About weather observations | Map of Perth area stations | Latest observations for Perth area | Other Formats
Station Details ID: 009021 Name: PERTH AIRPORT Lat: -31.93 Lon: 115.98 Height: 15.4 m
Data from the previous 72 hours. | See also: Recent months at Perth Airport
Date/Time
WST
Tmp

°C
App
Tmp
°C
Dew
Point
°C
Rel
Hum
%
Delta-T

°C
Wind Press
QNH
hPa
Press
MSL
hPa
Rain
since
9 am
mm
Dir
 
Spd
km/h
Gust
km/h
Spd
kts
Gust
kts
01/08:00am 17.8 12.6 8.7 55 4.7 ENE 26 37 14 20 1019.1 - 0.0
01/07:30am 16.2 9.9 8.8 61 3.8 ENE 32 43 17 23 1019.0 - 0.0
01/07:00am 15.2 8.3 8.7 65 3.3 E 35 48 19 26 1018.8 - 0.0
01/06:30am 15.3 8.9 8.4 63 3.5 ENE 32 54 17 29 1018.5 - 0.0
01/06:28am 15.2 9.2 8.5 64 3.4 ENE 30 54 16 29 1018.4 - 0.0
01/06:00am 14.8 10.0 8.9 68 3.0 ENE 24 37 13 20 1019.0 1019.0 0.0
01/05:30am 14.8 11.3 8.9 68 3.0 ENE 17 28 9 15 1018.9 - 0.0
01/05:00am 14.9 10.9 9.2 68 2.9 E 20 33 11 18 1018.8 - 0.0
01/04:30am 15.1 12.1 9.2 68 3.0 E 15 28 8 15 1018.7 - 0.0
01/04:00am 15.2 10.1 9.1 67 3.1 E 26 35 14 19 1018.8 - 0.0
01/03:30am 15.6 13.0 9.2 65 3.3 NE 13 22 7 12 1018.9 - 0.0
01/03:02am - - - - - - - - - - - - -
01/03:00am 16.4 14.4 8.6 60 4.0 ESE 9 19 5 10 1017.9 1017.8 0.0
01/02:30am 16.2 14.8 9.0 62 3.7 S 6 9 3 5 1018.4 - 0.0
01/02:00am 16.5 13.8 8.9 61 3.9 E 13 26 7 14 1018.6 - 0.0
01/01:30am 16.7 14.3 8.7 59 4.1 E 11 20 6 11 1019.0 - 0.0
01/01:00am 16.7 15.4 9.1 61 3.9 E 6 15 3 8 1019.5 - 0.0
01/12:30am 16.5 14.6 9.1 61 3.8 E 9 17 5 9 1019.9 - 0.0
01/12:00am 15.3 12.7 9.5 68 3.0 ESE 13 20 7 11 1020.2 1020.2 0.0
 
Date/Time
WST
Tmp

°C
App
Tmp
°C
Dew
Point
°C
Rel
Hum
%
Delta-T

°C
Wind Press
QNH
hPa
Press
MSL
hPa
Rain
since
9 am
mm
Dir
 
Spd
km/h
Gust
km/h
Spd
kts
Gust
kts
30/11:30pm 13.3 11.3 10.0 80 1.7 ESE 11 15 6 8 1020.5 - 0.0
30/11:00pm 13.4 10.6 10.1 80 1.7 ESE 15 22 8 12 1020.7 - 0.0
30/10:30pm 13.1 12.9 10.6 85 1.3 SW 2 9 1 5 1020.9 - 0.0
30/10:00pm 13.3 11.9 10.8 85 1.3 SSW 9 11 5 6 1021.2 - 0.0
30/09:30pm 12.8 11.5 11.1 89 0.9 S 9 13 5 7 1021.3 - 0.0
30/09:00pm 13.1 12.1 11.0 87 1.1 SSE 7 9 4 5 1021.4 1021.4 0.0
30/08:30pm 14.1 12.9 11.7 85 1.3 SE 9 11 5 6 1021.5 - 0.0
30/08:00pm 15.6 13.7 11.9 78 2.0 SSE 13 15 7 8 1021.3 - 0.0
30/07:30pm 16.5 15.3 12.7 78 2.1 SW 11 24 6 13 1021.1 - 0.0
30/07:00pm 17.7 16.4 11.4 66 3.4 SW 9 11 5 6 1020.7 - 0.0
30/06:30pm 19.5 18.1 10.8 57 4.7 S 9 13 5 7 1020.4 - 0.0
30/06:00pm 21.5 18.6 9.5 46 6.4 SE 15 19 8 10 1020.2 1020.2 0.0
30/05:30pm 22.5 20.5 8.7 41 7.3 SE 9 19 5 10 1020.0 - 0.0
30/05:00pm 23.1 20.7 8.6 39 7.7 SSE 11 17 6 9 1020.1 - 0.0
30/04:30pm 23.4 20.5 8.3 38 8.0 ESE 13 19 7 10 1020.0 - 0.0
30/04:00pm 23.5 21.0 8.2 37 8.1 NE 11 17 6 9 1020.2 - 0.0
30/03:30pm 23.3 20.3 7.6 36 8.2 E 13 22 7 12 1020.1 - 0.0
30/03:00pm 23.1 19.7 7.6 37 8.1 E 15 30 8 16 1020.1 1020.1 0.0
30/02:30pm 23.0 20.2 8.7 40 7.6 E 13 19 7 10 1020.3 - 0.0
30/02:00pm 22.4 18.3 7.8 39 7.6 E 19 26 10 14 1020.5 - 0.0
30/01:30pm 22.2 19.2 7.8 39 7.5 E 13 20 7 11 1020.9 - 0.0
30/01:00pm 21.6 18.7 8.2 42 7.0 E 13 24 7 13 1021.4 - 0.0
30/12:30pm 20.8 17.3 8.6 45 6.4 E 17 24 9 13 1021.8 - 0.0
30/12:00pm 20.8 18.1 9.1 47 6.2 ENE 13 20 7 11 1022.2 1022.2 0.0
30/11:30am 19.7 17.4 9.0 50 5.6 ESE 11 19 6 10 1022.7 - 0.0
30/11:00am 19.1 16.3 8.7 51 5.4 ENE 13 22 7 12 1023.0 - 0.0
30/10:30am 18.5 15.0 8.9 53 5.0 ENE 17 24 9 13 1023.4 - 0.0
30/10:00am 17.9 14.3 8.3 53 4.9 E 17 26 9 14 1023.6 - 0.0
30/09:30am 16.9 14.0 8.2 56 4.4 ESE 13 20 7 11 1023.7 - 0.0
30/09:00am 16.1 12.7 7.7 57 4.2 SE 15 20 8 11 1023.8 1023.9 1.8
30/08:30am 15.3 11.0 7.9 61 3.7 ESE 20 26 11 14 1023.6 - 1.8
30/08:00am 14.6 13.3 10.0 74 2.4 E 7 13 4 7 1023.5 - 1.8
30/07:30am 13.8 13.4 9.9 77 2.0 ENE 2 7 1 4 1023.3 - 1.8
30/07:00am 12.3 11.9 9.9 85 1.2 ENE 2 9 1 5 1023.1 - 1.8
30/06:30am 11.2 9.3 9.2 87 1.0 NE 9 11 5 6 1022.7 - 1.8
30/06:00am 10.7 10.2 9.3 91 0.7 NNE 2 11 1 6 1022.4 1022.4 1.8
30/05:30am 10.8 10.7 9.4 91 0.7 CALM 0 0 0 0 1022.1 - 1.8
30/05:00am 10.5 8.6 9.1 91 0.7 ENE 9 11 5 6 1021.7 - 1.8
30/04:30am 10.5 8.7 9.3 92 0.6 ENE 9 13 5 7 1021.6 - 1.8
30/04:00am 10.4 9.9 9.2 92 0.6 NE 2 6 1 3 1021.4 - 1.8
30/03:30am 10.3 10.2 9.3 93 0.5 CALM 0 6 0 3 1021.1 - 1.8
30/03:00am 10.5 8.7 9.5 93 0.5 NE 9 13 5 7 1021.0 1021.0 1.8
30/02:30am 10.6 9.3 9.8 95 0.4 E 7 7 4 4 1020.9 - 1.8
30/02:00am 11.0 9.3 10.0 93 0.5 E 9 9 5 5 1020.9 - 1.8
30/01:30am 11.5 10.4 10.5 94 0.5 E 7 9 4 5 1020.8 - 1.8
30/01:00am 11.4 9.9 10.6 95 0.4 E 9 9 5 5 1020.7 - 1.8
30/12:30am 10.7 9.3 9.7 93 0.5 S 7 9 4 5 1020.7 - 1.8
30/12:00am 11.5 10.2 9.9 90 0.8 S 7 9 4 5 1020.9 1020.9 1.8
 
Date/Time
WST
Tmp

°C
App
Tmp
°C
Dew
Point
°C
Rel
Hum
%
Delta-T

°C
Wind Press
QNH
hPa
Press
MSL
hPa
Rain
since
9 am
mm
Dir
 
Spd
km/h
Gust
km/h
Spd
kts
Gust
kts
29/11:30pm 13.4 11.6 10.7 84 1.4 S 11 15 6 8 1021.0 - 1.8
29/11:00pm 14.4 12.3 11.2 81 1.7 S 13 15 7 8 1021.1 - 1.8
29/10:30pm 15.6 13.4 10.7 72 2.6 S 13 17 7 9 1021.3 - 1.8
29/10:00pm 16.2 12.8 10.7 70 2.9 S 19 24 10 13 1021.3 - 1.8
29/09:30pm 16.2 13.6 10.7 70 2.9 S 15 17 8 9 1021.3 - 1.8
29/09:00pm 15.9 12.9 10.8 71 2.7 SSW 17 24 9 13 1021.2 1021.2 1.8
29/08:30pm 16.1 12.9 11.2 72 2.6 SSW 19 24 10 13 1020.9 - 1.8
29/08:00pm 16.0 14.1 11.7 75 2.3 SSW 13 17 7 9 1020.6 - 1.8
29/07:30pm 15.9 15.2 12.0 77 2.1 W 7 9 4 5 1020.1 - 1.8
29/07:00pm 16.3 15.2 11.9 75 2.4 SSW 9 13 5 7 1019.7 - 1.8
29/06:30pm 16.7 14.4 11.9 73 2.6 SSW 15 20 8 11 1019.5 - 1.8
29/06:00pm 17.1 13.3 12.4 74 2.6 SW 24 30 13 16 1019.3 1019.3 1.8
29/05:30pm 17.5 14.1 12.4 72 2.8 SW 22 30 12 16 1018.9 - 1.8
29/05:00pm 17.7 13.5 12.5 71 2.9 SW 26 32 14 17 1018.6 - 1.8
29/04:30pm 18.6 15.5 12.1 66 3.6 WSW 20 28 11 15 1018.1 - 1.8
29/04:00pm 18.9 15.8 12.2 65 3.7 W 20 30 11 16 1018.0 - 1.8
29/03:30pm 19.4 16.0 12.6 64 3.8 WSW 22 32 12 17 1017.6 - 1.8
29/03:00pm 18.8 16.0 12.5 67 3.5 WSW 19 26 10 14 1017.4 1017.4 1.8
29/02:30pm 19.4 16.1 12.8 65 3.7 WSW 22 32 12 17 1017.3 - 1.8
29/02:00pm 19.0 16.2 13.2 69 3.3 W 20 32 11 17 1017.4 - 1.8
29/01:30pm 19.3 15.5 12.5 64 3.8 WSW 24 32 13 17 1017.5 - 1.8
29/01:00pm 20.4 17.5 12.2 59 4.6 W 19 28 10 15 1017.4 - 1.8
29/12:30pm 19.9 17.2 12.8 63 4.0 WSW 19 30 10 16 1017.4 - 1.8
29/12:00pm 19.5 15.9 11.7 60 4.3 WSW 22 26 12 14 1017.8 1017.8 1.8
29/11:30am 19.3 15.6 12.7 65 3.7 W 24 33 13 18 1017.8 - 1.8
29/11:00am 17.9 16.0 14.2 79 2.1 W 17 26 9 14 1017.8 - 1.8
29/10:30am 16.8 14.9 14.3 85 1.4 W 17 26 9 14 1017.9 - 1.8
29/10:15am 18.6 17.2 14.4 76 2.4 WNW 15 28 8 15 1017.7 - 0.2
29/10:00am 18.1 17.3 15.2 83 1.7 NW 13 17 7 9 1017.8 - 0.2
29/09:30am 16.2 15.1 14.4 89 1.0 NNW 13 17 7 9 1017.9 - 0.2
29/09:00am 15.8 15.1 14.4 91 0.8 N 11 17 6 9 1017.8 1017.8 2.8
29/08:54am 15.9 15.6 14.3 90 0.9 N 9 13 5 7 1017.8 - 2.4
29/08:30am 15.6 14.9 14.2 91 0.8 N 11 15 6 8 1017.5 - 2.4
29/08:16am 15.1 14.4 14.2 94 0.5 N 11 13 6 7 1017.5 - 2.4
29/08:00am 14.3 12.9 13.4 94 0.5 N 13 19 7 10 1017.5 - 2.4
29/07:50am 15.0 13.3 13.7 92 0.7 N 15 19 8 10 1017.3 - 1.8
29/07:30am 14.0 12.2 13.3 96 0.4 N 15 19 8 10 1017.1 - 1.8
29/07:00am 13.2 11.9 12.6 96 0.3 NNE 11 13 6 7 1016.7 - 1.8
29/06:30am 12.6 10.9 12.4 99 0.1 N 13 17 7 9 1016.4 - 1.8
29/06:08am 12.5 11.1 12.3 99 0.1 NNE 11 15 6 8 1016.0 - 1.8
29/06:00am 12.6 11.1 12.0 96 0.3 NE 11 13 6 7 1016.0 1016.0 1.8
29/05:30am 12.7 12.1 12.3 97 0.2 NNE 7 11 4 6 1015.9 - 1.8
29/05:22am 12.6 11.2 12.2 97 0.2 NNE 11 15 6 8 1015.8 - 1.8
29/05:00am 12.6 11.2 12.2 97 0.2 NNE 11 13 6 7 1015.8 - 1.8
29/04:30am 12.6 11.2 12.2 97 0.2 NNE 11 13 6 7 1015.6 - 1.8
29/04:18am 12.6 11.6 12.2 97 0.2 NNE 9 13 5 7 1015.6 - 1.8
29/04:00am 12.6 11.6 12.2 97 0.2 N 9 11 5 6 1015.8 - 1.4
29/03:58am 12.6 11.6 12.2 97 0.2 N 9 11 5 6 1015.8 - 1.4
29/03:30am 12.5 11.1 12.1 97 0.2 N 11 15 6 8 1015.6 - 0.8
29/03:00am 12.6 11.5 12.0 96 0.3 NNE 9 11 5 6 1015.8 1015.8 0.8
29/02:30am 12.5 11.0 11.9 96 0.3 NE 11 13 6 7 1015.9 - 0.8
29/02:00am 12.7 11.6 12.1 96 0.3 NE 9 11 5 6 1016.1 - 0.8
29/01:30am 12.9 11.5 12.3 96 0.3 NNE 11 13 6 7 1016.2 - 0.8
29/01:00am 13.2 11.9 12.6 96 0.3 N 11 13 6 7 1016.4 - 0.8
29/12:30am 13.2 11.9 12.5 95 0.4 NNE 11 15 6 8 1016.4 - 0.6
29/12:00am 13.1 12.6 12.5 96 0.3 N 7 11 4 6 1016.6 1016.6 0.6
 
Date/Time
WST
Tmp

°C
App
Tmp
°C
Dew
Point
°C
Rel
Hum
%
Delta-T

°C
Wind Press
QNH
hPa
Press
MSL
hPa
Rain
since
9 am
mm
Dir
 
Spd
km/h
Gust
km/h
Spd
kts
Gust
kts
28/11:30pm 13.0 12.0 12.3 95 0.4 NNE 9 11 5 6 1016.6 - 0.6
28/11:00pm 13.2 11.9 12.5 95 0.4 N 11 13 6 7 1016.9 - 0.6
28/10:30pm 13.4 11.7 12.5 94 0.5 N 13 17 7 9 1017.1 - 0.6
28/10:00pm 13.3 11.5 12.2 93 0.6 NNE 13 15 7 8 1017.4 - 0.6
28/09:30pm 13.6 11.9 12.3 92 0.7 N 13 15 7 8 1017.5 - 0.6
28/09:00pm 14.6 13.1 11.8 83 1.5 N 11 13 6 7 1017.8 1017.8 0.6
28/08:30pm 15.7 13.2 11.2 74 2.4 NW 15 19 8 10 1017.7 - 0.6
28/08:00pm 16.0 13.2 11.3 73 2.5 NW 17 26 9 14 1017.6 - 0.6
28/07:30pm 15.6 13.9 11.3 75 2.3 WNW 11 15 6 8 1017.4 - 0.6
28/07:00pm 15.8 13.7 11.1 73 2.5 WNW 13 17 7 9 1017.2 - 0.6
28/06:30pm 16.5 13.9 10.7 68 3.1 WNW 15 22 8 12 1017.1 - 0.6
28/06:00pm 16.8 13.8 10.8 67 3.2 WNW 17 26 9 14 1017.0 1017.0 0.6
28/05:30pm 17.3 14.7 12.0 71 2.9 W 17 24 9 13 1016.9 - 0.6
28/05:00pm 16.6 15.3 13.8 83 1.6 W 13 20 7 11 1017.0 - 0.6
28/04:55pm 16.7 13.9 12.7 77 2.2 W 19 32 10 17 1017.0 - 0.2
28/04:30pm 17.9 13.9 10.6 62 3.9 NW 22 30 12 16 1016.6 - 0.2
28/04:00pm 19.3 15.6 10.2 55 4.9 WNW 20 30 11 16 1016.6 - 0.2
28/03:30pm 18.5 13.6 10.0 57 4.5 WNW 26 33 14 18 1016.6 - 0.2
28/03:00pm 18.3 14.0 10.7 61 4.1 WNW 24 33 13 18 1016.5 1016.5 0.2
28/02:30pm 19.4 14.1 9.8 53 5.1 WNW 28 35 15 19 1016.4 - 0.2
28/02:00pm 19.3 14.8 10.2 55 4.9 WNW 24 33 13 18 1016.5 - 0.0
28/01:30pm 18.5 13.9 9.8 57 4.6 NW 24 33 13 18 1016.6 - 0.0
28/01:00pm 18.8 13.6 11.7 63 3.9 WNW 30 39 16 21 1016.8 - 0.0
28/12:30pm 18.2 13.9 10.6 61 4.1 WNW 24 37 13 20 1016.8 - 0.0
28/12:00pm 18.4 14.9 10.8 61 4.1 WNW 20 33 11 18 1016.9 1016.9 0.0
28/11:30am 17.4 14.3 11.5 68 3.2 W 19 28 10 15 1017.3 - 0.0
28/11:00am 17.2 13.7 10.9 66 3.4 WNW 20 32 11 17 1017.2 - 0.0
28/10:30am 18.7 14.2 10.1 57 4.6 W 24 33 13 18 1017.0 - 0.0
28/10:00am 18.5 14.6 10.7 60 4.2 W 22 33 12 18 1016.9 - 0.0
28/09:30am 17.2 13.4 11.1 67 3.3 NW 22 32 12 17 1016.9 - 0.0
28/09:00am 16.2 12.8 11.2 72 2.7 NW 20 32 11 17 1017.0 1017.0 6.2
28/08:30am 14.6 11.6 11.8 83 1.5 W 19 33 10 18 1017.0 - 6.2

Latest Capital City Observations: Canberra | Sydney | Melbourne | Brisbane | Adelaide | Perth | Hobart | Darwin

Other Formats:

Comma delimited format used in spreadsheet applications
http://www.bom.gov.au/fwo/IDW60901/IDW60901.94610.axf

JavaScript Object Notation format (JSON) in row-major order
http://www.bom.gov.au/fwo/IDW60901/IDW60901.94610.json